This is the latest recevied weather packets stored in our database for station/object SQ9MHX-13. If no packets are shown the sender has not sent any weather packets the latest 10 day(s).
| Time | Temp. | Humidity | Pressure | Rain* | Wind** | Luminosity | Snow |
|---|---|---|---|---|---|---|---|
| 1778052790 | 21.11° C | 46% | 945.4 hPa | - | 0 m/s | - | - |
| 1778052491 | 21.11° C | 46% | 944.8 hPa | - | 0 m/s | - | - |
| 1778051893 | 21.11° C | 47% | 945.4 hPa | - | 0 m/s | - | - |
| 1778051294 | 21.11° C | 47% | 945.5 hPa | - | 0 m/s | - | - |
| 1778050696 | 21.11° C | 46% | 945.7 hPa | - | 0 m/s | - | - |
| 1778050397 | 21.11° C | 46% | 945.6 hPa | - | 0 m/s | - | - |
| 1778049799 | 20° C | 49% | 946.2 hPa | - | 0 m/s | - | - |
| 1778049500 | 21.11° C | 49% | 946.5 hPa | - | 0 m/s | - | - |
| 1778049201 | 20° C | 51% | 946.7 hPa | - | 0 m/s | - | - |
| 1778048902 | 20° C | 49% | 946.8 hPa | - | 0 m/s | - | - |
| 1778048603 | 20° C | 50% | 946.8 hPa | - | 0 m/s | - | - |
| 1778048005 | 20° C | 48% | 947.5 hPa | - | 0 m/s | - | - |
| 1778047706 | 18.89° C | 49% | 947.9 hPa | - | 0 m/s | - | - |
| 1778047407 | 18.89° C | 50% | 948.4 hPa | - | 0 m/s | - | - |
| 1778047108 | 18.89° C | 49% | 948.5 hPa | - | 0 m/s | - | - |
| 1778046809 | 18.89° C | 49% | 949 hPa | - | 0 m/s | - | - |
| 1778046510 | 17.78° C | 51% | 949.5 hPa | - | 0 m/s | - | - |
| 1778046211 | 18.89° C | 49% | 949.9 hPa | - | 0 m/s | - | - |
| 1778045613 | 17.78° C | 49% | 952.3 hPa | - | 0 m/s | - | - |
| 1778045016 | 16.11° C | 56% | 955 hPa | - | 0 m/s | - | - |
| 1778044717 | 16.11° C | 56% | 954.3 hPa | - | 0 m/s | - | - |
| 1778043821 | 16.11° C | 54% | 955.6 hPa | - | 0 m/s | - | - |
| 1778043224 | 15° C | 55% | 956.2 hPa | - | 0 m/s | - | - |
| 1778042925 | 15° C | 54% | 956.3 hPa | - | 0 m/s | - | - |
| 1778042629 | 15° C | 56% | - | - | 0 m/s | - | - |
* Rain since midnight (hover to see other rain measurements)
** Current wind speed in m/s (hover to see current wind gust speed)